Home > Weather > Grand Junction > Past weeks

Flag for USA Weather for the Past 2 Weeks in Grand Junction, Colorado, USA

Now
48 °F

Passing clouds.


Feels Like: 44 °F
Forecast: 44 / 57 °F
Wind: 9 mph from North

Location: Walker Field

Current Time: Apr 28, 2016 at 2:27:24 PM

Latest Report: Apr 28, 2016 at 1:53 PM


Visibility: 10 mi

Pressure: 29.66 "Hg (25.04 "Hg at 1398m altitude)

Humidity: 77%

Dew Point: 41 °F

Location of Grand JunctionLocation

Historic Weather in Grand Junction — Graph

°F

Grand Junction Temperature Yesterday

Maximum temperature yesterday: 58 °F (at 3:53 PM)
Minimum temperature yesterday: 36 °F (at 5:53 AM)
Average temperature yesterday: 48 °F

High & Low Weather Summary for the Past Weeks

 TemperatureHumidityPressure
High79 °F (Apr 22, 2:53 PM)100% (Apr 18, 9:53 AM)30.31 "Hg (Apr 18, 9:53 AM)
Low31 °F (Apr 19, 5:53 AM)10% (Apr 22, 4:53 PM)29.41 "Hg (Apr 25, 2:53 PM)
Average51 °F56%29.85 "Hg
* Reported Apr 13 12:53 PM — Apr 28 12:53 PM, Grand Junction, Weather by CustomWeather, © 2016

Note: Actual official high and low records may vary slightly from our data, if they occured in-between our weather recording intervals... More about our weather records

Advertising

Grand Junction Weather History for the Previous 24 Hours

Scroll right to see more
 ConditionsComfort  
Time TempWeatherWind HumidityBarometerVisibility
12:53 PM
Thu, Apr 28
47 °FLight rain. More clouds than sun.9 mph86%29.67 "Hg10 mi
11:53 AM49 °FBroken clouds.No wind74%29.63 "Hg10 mi
10:53 AM47 °FScattered clouds.5 mph80%29.66 "Hg10 mi
9:53 AM43 °FBroken clouds.3 mph82%29.67 "Hg10 mi
8:53 AM40 °FLight rain. Overcast.6 mph93%29.70 "Hg9 mi
8:01 AM40 °FLight rain. Mostly cloudy.7 mph93%29.76 "Hg7 mi
6:53 AM42 °FRain. Fog.12 mph100%29.65 "Hg3 mi
5:53 AM44 °FLight rain. Overcast.3 mph93%29.60 "Hg8 mi
4:53 AM46 °FLight rain. Overcast.9 mph79%29.59 "Hg10 mi
3:53 AM46 °FPassing clouds.7 mph77%29.58 "Hg10 mi
2:53 AM47 °FPassing clouds.5 mph74%29.59 "Hg10 mi
1:53 AM47 °FMostly cloudy.9 mph80%29.62 "Hg10 mi
12:53 AM50 °FLight rain. Mostly cloudy.9 mph63%29.63 "Hg10 mi
11:53 PM
Wed, Apr 27
50 °FMostly cloudy.8 mph63%29.64 "Hg10 mi
10:53 PM49 °FPassing clouds.9 mph64%29.66 "Hg10 mi
9:53 PM52 °FOvercast.17 mph55%29.66 "Hg10 mi
8:53 PM52 °FBroken clouds.14 mph61%29.67 "Hg10 mi
7:53 PM55 °FPassing clouds.8 mph45%29.66 "Hg10 mi
6:53 PM56 °FSunny.6 mph46%29.67 "Hg10 mi
5:53 PM57 °FSunny.7 mph46%29.67 "Hg10 mi
4:53 PM57 °FPartly sunny.No wind44%29.68 "Hg10 mi
3:53 PM58 °FPartly sunny.3 mph44%29.70 "Hg10 mi
2:53 PM57 °FScattered clouds.No wind47%29.72 "Hg10 mi
Weather by CustomWeather, © 2016

See weather overviewHow to use our weather pages